Location: Newark
(16.3678°N, 77.8722°E)
Time: 01:22:58
(UTC+00:00)

S-56A Canister/Altair - Pass Details

Date: 14 December 2019
Orbit: 634 x 2498 km, 38.9° (Epoch: 19 January)

Event Time Altitude Azimuth Distance (km) Brightness Sun altitude
Rises 10:10:43 0° 309° (NW) 6,122 12.3 25.6°
Reaches altitude 10° 10:14:59 10° 311° (NW) 5,006 11.9 24.8°
Maximum altitude 10:28:56 72° 34° (NE) 1,999 9.8 22.1°
Drops below altitude 10° 10:38:33 10° 118° (ESE) 3,574 10.7 20.2°
Sets 10:41:05 0° 120° (ESE) 4,330 11.1 19.7°
